Midland Airpark, TX

9:32 AM CDT on March 26, 2017 (GMT -0500)
Midland

Weather History for KMDD - April, 2013

Change the Weather History Date:

Tuesday, April 9, 2013

  Actual Average (KMAF) Record (KMAF)
Temperature  
Mean Temperature 70 °F -  
Max Temperature 91 °F 74 °F 95 °F (2011)
Min Temperature 49 °F 45 °F 20 °F (1973)
Cooling Degree Days 6    
Growing Degree Days 20 (Base 50)    
Moisture  
Dew Point 41 °F    
Average Humidity 42    
Maximum Humidity 83    
Minimum Humidity 7    
Precipitation  
Precipitation 0.00 in - - ()
Sea Level Pressure  
Sea Level Pressure 29.61 in    
Wind  
Wind Speed 21 mph (SSW)    
Max Wind Speed 29 mph    
Max Gust Speed 40 mph    
Visibility 8 miles    
Events      
Averages and records for this station are not official NWS values.
T = Trace of Precipitation, MM = Missing Value Source: NWS Daily Summary

Daily Weather History Graph

Daily Weather History Graph

Search for Another Location

Airport or City:

Trip Planner

Search our weather history database for the weather conditions in past years. The results will help you decide how hot, cold, wet, or windy it might be!

Date:

Astronomy

Apr. 09, 2013 Rise Set
Actual Time 7:26 AM CDT 8:13 PM CDT
Civil Twilight 7:01 AM CDT 8:38 PM CDT
Nautical Twilight 6:32 AM CDT 9:08 PM CDT
Astronomical Twilight 6:02 AM CDT 9:38 PM CDT
Moon 6:48 AM CDT (4/9) 7:51 PM CDT (4/9)
Length of Visible Light 13h 37m
Length of Day
12h 47m
Waning Crescent, 1% of the Moon is Illuminated
Apr 9
Waning Crescent
Apr 10
New
Apr 18
First Quarter
Apr 25
Full
May 2
Last Quarter

Hourly Weather History & Observations

Time (CDT) Temp. Dew Point Humidity Pressure Visibility Wind Dir Wind Speed Gust Speed Precip Events Conditions
12:15 AM 75.7 °F 52.7 °F 45% 29.55 in 10.0 mi SSE 21.9 mph 32.2 mph N/A   Clear
12:35 AM 75.2 °F 55.4 °F 50% 29.54 in 10.0 mi SSE 20.7 mph 34.5 mph N/A   Clear
12:55 AM 74.3 °F 56.3 °F 53% 29.55 in 10.0 mi SSE 21.9 mph 28.8 mph N/A   Clear
1:15 AM 73.6 °F 58.3 °F 59% 29.54 in 7.0 mi South 25.3 mph 33.4 mph N/A   Clear
1:35 AM 73.4 °F 58.6 °F 60% 29.54 in 7.0 mi South 20.7 mph 27.6 mph N/A   Clear
1:55 AM 72.9 °F 58.5 °F 60% 29.53 in 10.0 mi South 26.5 mph 34.5 mph N/A   Clear
2:15 AM 72.1 °F 59.4 °F 64% 29.54 in 7.0 mi SSE 25.3 mph 36.8 mph N/A   Clear
2:35 AM 71.4 °F 60.1 °F 67% 29.53 in 7.0 mi South 24.2 mph 33.4 mph N/A   Clear
2:55 AM 70.7 °F 60.4 °F 70% 29.53 in 7.0 mi South 23.0 mph 33.4 mph N/A   Clear
3:15 AM 70.2 °F 60.8 °F 72% 29.52 in 7.0 mi South 25.3 mph 34.5 mph N/A   Clear
3:35 AM 70.2 °F 60.8 °F 72% 29.52 in 7.0 mi South 20.7 mph 29.9 mph N/A   Clear
3:55 AM 70.0 °F 61.0 °F 73% 29.52 in 7.0 mi South 20.7 mph 28.8 mph N/A   Clear
4:15 AM 69.8 °F 61.3 °F 74% 29.52 in 10.0 mi SSE 20.7 mph 29.9 mph N/A   Clear
4:35 AM 69.6 °F 61.7 °F 76% 29.52 in 10.0 mi South 23.0 mph 32.2 mph N/A   Clear
4:55 AM 69.1 °F 61.9 °F 78% 29.52 in 7.0 mi South 21.9 mph 33.4 mph N/A   Clear
5:15 AM 68.9 °F 61.9 °F 78% 29.52 in 7.0 mi South 25.3 mph 32.2 mph N/A   Clear
5:35 AM 68.4 °F 61.7 °F 79% 29.52 in 7.0 mi South 23.0 mph 29.9 mph N/A   Clear
5:55 AM 68.0 °F 61.7 °F 80% 29.52 in 7.0 mi South 26.5 mph 31.1 mph N/A   Clear
6:15 AM 67.6 °F 61.7 °F 81% 29.53 in 7.0 mi South 23.0 mph 32.2 mph N/A   Clear
6:35 AM 67.3 °F 61.7 °F 82% 29.55 in 7.0 mi South 19.6 mph 31.1 mph N/A   Clear
6:55 AM 67.1 °F 61.5 °F 82% 29.55 in 7.0 mi South 20.7 mph 29.9 mph N/A   Clear
7:15 AM 66.7 °F 61.5 °F 83% 29.56 in 7.0 mi South 18.4 mph 25.3 mph N/A   Clear
7:35 AM 66.7 °F 61.5 °F 83% 29.57 in 5.0 mi South 17.3 mph 26.5 mph N/A   Haze
7:55 AM 66.7 °F 61.5 °F 83% 29.57 in 5.0 mi South 15.0 mph 23.0 mph N/A   Haze
8:15 AM 67.1 °F 61.2 °F 81% 29.58 in 7.0 mi South 18.4 mph - N/A   Clear
8:35 AM 67.8 °F 60.8 °F 78% 29.59 in 7.0 mi South 18.4 mph 23.0 mph N/A   Clear
8:55 AM 69.1 °F 59.9 °F 72% 29.59 in 7.0 mi South 17.3 mph 23.0 mph N/A   Clear
9:15 AM 70.7 °F 58.8 °F 66% 29.59 in 10.0 mi South 16.1 mph 25.3 mph N/A   Clear
9:35 AM 73.0 °F 56.5 °F 56% 29.60 in 10.0 mi SSW 17.3 mph 21.9 mph N/A   Clear
9:55 AM 75.2 °F 51.3 °F 43% 29.60 in 10.0 mi SSW 24.2 mph 31.1 mph N/A   Clear
10:15 AM 76.5 °F 47.1 °F 35% 29.60 in 10.0 mi SSW 20.7 mph 29.9 mph N/A   Clear
10:35 AM 78.4 °F 44.6 °F 30% 29.61 in 10.0 mi SSW 20.7 mph 28.8 mph N/A   Clear
10:55 AM 79.7 °F 41.7 °F 26% 29.62 in 10.0 mi SW 21.9 mph 31.1 mph N/A   Clear
11:15 AM 81.5 °F 39.0 °F 22% 29.62 in 10.0 mi SW 24.2 mph 31.1 mph N/A   Clear
11:35 AM 82.8 °F 37.6 °F 20% 29.62 in 10.0 mi SW 17.3 mph 28.8 mph N/A   Clear
11:55 AM 83.1 °F 30.0 °F 15% 29.62 in 10.0 mi SSW 17.3 mph 28.8 mph N/A   Clear
12:15 PM 84.0 °F 27.9 °F 13% 29.62 in 10.0 mi SW 20.7 mph 26.5 mph N/A   Clear
12:35 PM 84.2 °F 29.8 °F 14% 29.62 in 10.0 mi SSW 23.0 mph 27.6 mph N/A   Clear
12:55 PM 85.6 °F 25.3 °F 11% 29.60 in 10.0 mi WSW 19.6 mph 27.6 mph N/A   Clear
1:15 PM 85.6 °F 26.4 °F 12% 29.60 in 10.0 mi SSW 20.7 mph 26.5 mph N/A   Clear
1:35 PM 86.4 °F 25.0 °F 11% 29.59 in 10.0 mi SW 17.3 mph 28.8 mph N/A   Clear
1:55 PM 87.8 °F 23.7 °F 10% 29.58 in 10.0 mi WSW 18.4 mph 29.9 mph N/A   Clear
2:15 PM 87.6 °F 22.8 °F 9% 29.58 in 10.0 mi WSW 18.4 mph 31.1 mph N/A   Clear
2:35 PM 88.0 °F 21.7 °F 9% 29.57 in 10.0 mi SSW 21.9 mph 29.9 mph N/A   Clear
2:55 PM 88.7 °F 21.2 °F 8% 29.56 in - WSW 17.3 mph - N/A   Unknown
3:15 PM 89.2 °F 21.2 °F 8% 29.55 in 10.0 mi SW 15.0 mph 25.3 mph N/A   Clear
3:35 PM 89.6 °F 20.7 °F 8% 29.55 in 10.0 mi SSW 17.3 mph 26.5 mph N/A   Clear
3:55 PM 90.1 °F 19.9 °F 8% 29.53 in 10.0 mi WSW 25.3 mph 32.2 mph N/A   Clear
4:15 PM 91.2 °F 19.4 °F 7% 29.52 in 10.0 mi SW 20.7 mph 25.3 mph N/A   Clear
4:35 PM 90.1 °F 19.0 °F 7% 29.53 in 10.0 mi SW 20.7 mph 36.8 mph N/A   Clear
4:55 PM 88.9 °F 23.0 °F 9% 29.53 in 10.0 mi West 13.8 mph 25.3 mph N/A   Clear
5:15 PM 88.0 °F 26.4 °F 11% 29.53 in 5.0 mi NW 25.3 mph 33.4 mph N/A   Haze
5:35 PM 83.8 °F 27.5 °F 13% 29.54 in 4.0 mi NW 24.2 mph 32.2 mph N/A   Haze
5:55 PM 81.7 °F 28.2 °F 14% 29.57 in 5.0 mi NW 26.5 mph 35.7 mph N/A   Haze
6:15 PM 79.2 °F 28.2 °F 15% 29.59 in 5.0 mi NNW 26.5 mph 36.8 mph N/A   Haze
6:35 PM 76.1 °F 31.6 °F 20% 29.61 in 3.0 mi North 26.5 mph 34.5 mph N/A   Haze
6:55 PM 70.3 °F 30.6 °F 23% 29.63 in 2.5 mi North 24.2 mph 40.3 mph N/A   Haze
7:15 PM 67.3 °F 29.8 °F 25% 29.64 in 2.5 mi North 28.8 mph 38.0 mph N/A   Haze
7:35 PM 64.6 °F 29.5 °F 27% 29.67 in 3.0 mi North 26.5 mph 31.1 mph N/A   Haze
7:55 PM 61.7 °F 28.4 °F 28% 29.70 in 3.0 mi North 18.4 mph 35.7 mph N/A   Haze
8:15 PM 60.1 °F 28.0 °F 30% 29.73 in 4.0 mi North 19.6 mph 26.5 mph N/A   Haze
8:35 PM 57.9 °F 27.0 °F 31% 29.75 in 5.0 mi North 17.3 mph 26.5 mph N/A   Haze
8:55 PM 56.7 °F 26.6 °F 32% 29.75 in 5.0 mi North 17.3 mph 27.6 mph N/A   Haze
9:15 PM 55.2 °F 26.1 °F 33% 29.76 in 5.0 mi NNE 11.5 mph 24.2 mph N/A   Haze
9:35 PM 54.5 °F 26.6 °F 34% 29.80 in 5.0 mi NNE 10.4 mph - N/A   Haze
9:55 PM 54.5 °F 27.5 °F 35% 29.80 in 7.0 mi NNE 16.1 mph 21.9 mph N/A   Clear
10:15 PM 53.8 °F 29.7 °F 40% 29.81 in 7.0 mi NNE 13.8 mph 20.7 mph N/A   Clear
10:35 PM 53.4 °F 30.0 °F 41% 29.82 in 7.0 mi NNE 12.7 mph 18.4 mph N/A   Clear
10:55 PM 52.7 °F 29.5 °F 41% 29.83 in 7.0 mi North 13.8 mph 20.7 mph N/A   Clear
11:15 PM 51.3 °F 27.7 °F 40% 29.84 in 7.0 mi North 15.0 mph 23.0 mph N/A   Clear
11:35 PM 50.2 °F 26.8 °F 40% 29.85 in 10.0 mi North 13.8 mph 21.9 mph N/A   Clear
11:55 PM 49.1 °F 26.6 °F 42% 29.86 in 10.0 mi North 17.3 mph 23.0 mph N/A   Clear